Location: Ku?niki
(51.4449°N, 17.8974°E)
Time: 01:49:53
(UTC+00:00)

First-Move - Pass Details

Date: 26 June 2022
Orbit: 572 x 658 km, 97.6° (Epoch: 07 August)

Event Time Altitude Azimuth Distance (km) Brightness Sun altitude
Rises 01:23:07 0° 33° (NNE) 2,916 ? -8.1°
Reaches altitude 10° 01:27:20 10° 73° (ENE) 2,026 ? -7.7°
Maximum altitude 01:28:15 11° 85° (E) 1,992 ? -7.6°
Drops below altitude 10° 01:29:11 10° 97° (E) 2,033 ? -7.6°
Sets 01:33:26 0° 136° (SE) 2,955 ? -7.2°
